| time (UTC) | temp C | wind direction | speed KPH | gust KPH | rain 1hr cm | rain 24hr cm | rain mn cm | humidity % | barometer mb |
| 20260504081940 | 18 | 157 | 0.0 | 0.0 | 0.00 | 0.00 | 0.00 | 78 | 1012.0 |
| 20260504081440 | 18 | 0 | 0.0 | 6.4 | 0.00 | 0.00 | 0.00 | 77 | 1012.1 |
| 20260504080940 | 18 | 135 | 6.4 | 6.4 | 0.00 | 0.00 | 0.00 | 78 | 1012.2 |
| 20260504080440 | 18 | 45 | 0.0 | 4.8 | 0.00 | 0.00 | 0.00 | 78 | 1012.3 |
| 20260504050440 | 15 | 45 | 0.0 | 0.0 | 0.00 | 0.10 | 0.00 | 87 | 1012.0 |
| 20260504045940 | 15 | 45 | 0.0 | 0.0 | 0.00 | 0.10 | 0.00 | 87 | 1012.0 |
| 20260504045440 | 15 | 45 | 0.0 | 0.0 | 0.00 | 0.10 | 0.00 | 87 | 1012.1 |
| 20260504044940 | 15 | 45 | 0.0 | 0.0 | 0.00 | 0.10 | 0.00 | 87 | 1012.0 |
| 20260504044440 | 15 | 45 | 0.0 | 0.0 | 0.00 | 0.10 | 0.00 | 87 | 1012.1 |
| 20260504043940 | 15 | 45 | 0.0 | 0.0 | 0.00 | 0.10 | 0.00 | 87 | 1012.2 |
| 20260504043440 | 15 | 45 | 0.0 | 0.0 | 0.00 | 0.10 | 0.00 | 87 | 1012.2 |
| 20260504042940 | 15 | 45 | 0.0 | 0.0 | 0.00 | 0.10 | 0.00 | 87 | 1012.3 |
| 20260504042440 | 14 | 45 | 0.0 | 0.0 | 0.00 | 0.10 | 0.00 | 87 | 1012.2 |
| 20260504041940 | 14 | 45 | 0.0 | 0.0 | 0.00 | 0.10 | 0.00 | 87 | 1012.3 |
| 20260504041441 | 14 | 45 | 0.0 | 0.0 | 0.00 | 0.10 | 0.00 | 87 | 1012.2 |
| 20260504040941 | 14 | 22 | 0.0 | 0.0 | 0.00 | 0.10 | 0.00 | 87 | 1012.0 |
| 20260504040441 | 14 | 22 | 0.0 | 0.0 | 0.00 | 0.10 | 0.00 | 87 | 1012.2 |
| 20260504035941 | 14 | 0 | 0.0 | 0.0 | 0.00 | 0.10 | 0.00 | 87 | 1012.3 |
| 20260504035441 | 14 | 0 | 0.0 | 0.0 | 0.00 | 0.10 | 0.00 | 87 | 1012.2 |
| 20260504034941 | 14 | 0 | 0.0 | 0.0 | 0.00 | 0.10 | 0.00 | 87 | 1012.5 |
| 20260504034441 | 13 | 0 | 0.0 | 0.0 | 0.00 | 0.10 | 0.00 | 87 | 1012.6 |
| 20260504033941 | 13 | 0 | 0.0 | 0.0 | 0.00 | 0.10 | 0.00 | 87 | 1012.6 |
| 20260504033441 | 13 | 0 | 0.0 | 0.0 | 0.00 | 0.10 | 0.00 | 87 | 1012.7 |
| 20260504032941 | 13 | 0 | 0.0 | 0.0 | 0.00 | 0.10 | 0.00 | 87 | 1012.6 |
| 20260504032441 | 13 | 0 | 0.0 | 0.0 | 0.00 | 0.10 | 0.00 | 87 | 1012.7 |
| 20260504031941 | 13 | 0 | 0.0 | 0.0 | 0.00 | 0.10 | 0.00 | 87 | 1012.7 |
| 20260504031441 | 13 | 0 | 0.0 | 0.0 | 0.00 | 0.10 | 0.00 | 87 | 1012.6 |
| 20260504030941 | 13 | 0 | 0.0 | 3.2 | 0.00 | 0.10 | 0.00 | 87 | 1012.5 |
| 20260504030441 | 13 | 0 | 3.2 | 3.2 | 0.00 | 0.10 | 0.00 | 87 | 1012.6 |
| 20260504025941 | 13 | 22 | 0.0 | 0.0 | 0.00 | 0.10 | 0.00 | 87 | 1012.5 |
| 20260504025441 | 13 | 22 | 0.0 | 0.0 | 0.00 | 0.10 | 0.00 | 87 | 1012.7 |
| 20260504024941 | 13 | 22 | 0.0 | 0.0 | 0.00 | 0.10 | 0.00 | 87 | 1012.6 |
| 20260504024441 | 13 | 22 | 0.0 | 0.0 | 0.00 | 0.10 | 0.00 | 87 | 1012.7 |
| 20260504023941 | 13 | 22 | 0.0 | 0.0 | 0.00 | 0.10 | 0.00 | 87 | 1012.6 |
| 20260504023441 | 13 | 0 | 0.0 | 0.0 | 0.00 | 0.10 | 0.00 | 87 | 1012.6 |
| 20260504022941 | 13 | 22 | 0.0 | 0.0 | 0.00 | 0.10 | 0.00 | 87 | 1012.5 |
| 20260504022441 | 13 | 0 | 0.0 | 0.0 | 0.00 | 0.10 | 0.00 | 86 | 1012.5 |
| 20260504021941 | 13 | 0 | 0.0 | 0.0 | 0.00 | 0.10 | 0.00 | 86 | 1012.4 |
| 20260504021441 | 13 | 0 | 0.0 | 0.0 | 0.00 | 0.10 | 0.00 | 86 | 1012.4 |
| 20260504020941 | 13 | 0 | 0.0 | 0.0 | 0.00 | 0.10 | 0.00 | 86 | 1012.3 |
| 20260504015941 | 13 | 22 | 0.0 | 0.0 | 0.00 | 0.10 | 0.00 | 86 | 1012.4 |
| 20260504015441 | 13 | 22 | 0.0 | 0.0 | 0.00 | 0.10 | 0.00 | 86 | 1012.4 |
| 20260504014941 | 13 | 22 | 0.0 | 0.0 | 0.00 | 0.10 | 0.00 | 86 | 1012.4 |
| 20260504014441 | 13 | 22 | 0.0 | 0.0 | 0.00 | 0.10 | 0.00 | 86 | 1012.5 |
| 20260504013941 | 13 | 22 | 0.0 | 0.0 | 0.00 | 0.10 | 0.00 | 86 | 1012.6 |
| 20260504013441 | 13 | 22 | 0.0 | 0.0 | 0.00 | 0.10 | 0.00 | 86 | 1012.6 |
| 20260504012941 | 13 | 22 | 0.0 | 0.0 | 0.00 | 0.10 | 0.00 | 86 | 1012.8 |
| 20260504012441 | 13 | 22 | 0.0 | 0.0 | 0.00 | 0.10 | 0.00 | 86 | 1012.9 |
| 20260504011941 | 13 | 22 | 0.0 | 0.0 | 0.00 | 0.10 | 0.00 | 86 | 1013.1 |
| 20260504011441 | 13 | 22 | 0.0 | 0.0 | 0.00 | 0.10 | 0.00 | 85 | 1013.1 |
| 20260504010941 | 13 | 22 | 0.0 | 0.0 | 0.00 | 0.10 | 0.00 | 85 | 1013.1 |
| 20260504010441 | 14 | 0 | 0.0 | 0.0 | 0.00 | 0.10 | 0.00 | 85 | 1012.9 |
| 20260504005941 | 14 | 0 | 0.0 | 0.0 | 0.00 | 0.10 | 0.00 | 85 | 1013.2 |
| 20260504005441 | 14 | 0 | 0.0 | 0.0 | 0.00 | 0.10 | 0.00 | 85 | 1013.3 |
| 20260504004941 | 14 | 22 | 0.0 | 0.0 | 0.00 | 0.10 | 0.00 | 85 | 1013.2 |
| 20260504004441 | 14 | 22 | 0.0 | 0.0 | 0.00 | 0.10 | 0.00 | 85 | 1013.3 |
| 20260504003941 | 14 | 22 | 0.0 | 0.0 | 0.00 | 0.10 | 0.00 | 85 | 1013.2 |
| 20260504003441 | 14 | 22 | 0.0 | 0.0 | 0.00 | 0.10 | 0.00 | 85 | 1013.3 |
| 20260504002941 | 14 | 22 | 0.0 | 0.0 | 0.00 | 0.10 | 0.00 | 85 | 1013.3 |
| 20260504002441 | 14 | 22 | 0.0 | 0.0 | 0.00 | 0.10 | 0.00 | 84 | 1013.4 |
| 20260504001941 | 14 | 22 | 0.0 | 0.0 | 0.00 | 0.10 | 0.00 | 84 | 1013.4 |
| 20260504001441 | 14 | 22 | 0.0 | 3.2 | 0.00 | 0.10 | 0.00 | 84 | 1013.5 |
| 20260504000942 | 14 | 0 | 3.2 | 3.2 | 0.00 | 0.10 | 0.00 | 84 | 1013.4 |
| 20260504000441 | 15 | 22 | 3.2 | 3.2 | 0.00 | 0.10 | 0.00 | 84 | 1013.4 |
| 20260503235941 | 15 | 22 | 0.0 | 0.0 | 0.00 | 0.10 | 0.00 | 84 | 1013.4 |
| 20260503235441 | 15 | 22 | 0.0 | 0.0 | 0.00 | 0.10 | 0.00 | 84 | 1013.4 |
| 20260503234941 | 15 | 0 | 0.0 | 0.0 | 0.00 | 0.10 | 0.00 | 84 | 1013.4 |
| 20260503233441 | 15 | 0 | 0.0 | 0.0 | 0.00 | 0.10 | 0.00 | 84 | 1013.4 |
| 20260503232941 | 15 | 0 | 0.0 | 0.0 | 0.00 | 0.10 | 0.00 | 84 | 1013.3 |
| 20260503232441 | 15 | 0 | 0.0 | 3.2 | 0.00 | 0.10 | 0.00 | 83 | 1013.4 |
| 20260503231941 | 15 | 22 | 3.2 | 3.2 | 0.00 | 0.10 | 0.00 | 84 | 1013.5 |
| 20260503231441 | 15 | 22 | 3.2 | 3.2 | 0.00 | 0.10 | 0.00 | 84 | 1013.6 |
| 20260503230941 | 15 | 22 | 3.2 | 4.8 | 0.00 | 0.10 | 0.00 | 84 | 1013.5 |
| 20260503230441 | 15 | 0 | 4.8 | 6.4 | 0.00 | 0.10 | 0.00 | 83 | 1013.6 |
| 20260503225941 | 15 | 0 | 6.4 | 6.4 | 0.00 | 0.10 | 0.00 | 83 | 1013.6 |
| 20260503225441 | 15 | 0 | 3.2 | 3.2 | 0.00 | 0.10 | 0.00 | 83 | 1013.7 |
| 20260503224942 | 15 | 22 | 3.2 | 3.2 | 0.00 | 0.10 | 0.00 | 83 | 1013.5 |
| 20260503224441 | 15 | 22 | 3.2 | 3.2 | 0.00 | 0.10 | 0.00 | 83 | 1013.6 |
| 20260503223941 | 15 | 22 | 0.0 | 0.0 | 0.00 | 0.10 | 0.00 | 83 | 1013.7 |
| 20260503223442 | 15 | 45 | 0.0 | 0.0 | 0.00 | 0.10 | 0.00 | 83 | 1013.7 |
| 20260503222942 | 15 | 45 | 0.0 | 0.0 | 0.00 | 0.10 | 0.00 | 83 | 1013.5 |
| 20260503222442 | 15 | 45 | 0.0 | 0.0 | 0.00 | 0.10 | 0.00 | 83 | 1013.8 |
| 20260503221942 | 15 | 67 | 0.0 | 0.0 | 0.00 | 0.10 | 0.00 | 82 | 1013.5 |
| 20260503221442 | 15 | 67 | 0.0 | 0.0 | 0.00 | 0.10 | 0.00 | 82 | 1013.5 |
| 20260503220942 | 15 | 67 | 0.0 | 0.0 | 0.00 | 0.10 | 0.00 | 82 | 1013.5 |
| 20260503220442 | 15 | 67 | 0.0 | 0.0 | 0.00 | 0.10 | 0.00 | 82 | 1013.6 |
| 20260503215942 | 15 | 67 | 0.0 | 0.0 | 0.00 | 0.10 | 0.00 | 82 | 1013.5 |
| 20260503215442 | 15 | 67 | 0.0 | 0.0 | 0.00 | 0.10 | 0.00 | 82 | 1013.7 |
| 20260503214942 | 15 | 67 | 0.0 | 0.0 | 0.00 | 0.10 | 0.00 | 82 | 1013.4 |
| 20260503214442 | 15 | 67 | 0.0 | 0.0 | 0.00 | 0.10 | 0.00 | 82 | 1013.5 |
| 20260503213942 | 15 | 67 | 0.0 | 0.0 | 0.00 | 0.10 | 0.00 | 82 | 1013.4 |
| 20260503213442 | 15 | 67 | 0.0 | 0.0 | 0.00 | 0.10 | 0.00 | 83 | 1013.4 |
| 20260503212942 | 15 | 67 | 0.0 | 0.0 | 0.00 | 0.10 | 0.00 | 83 | 1013.4 |
| 20260503212442 | 15 | 90 | 0.0 | 0.0 | 0.00 | 0.10 | 0.00 | 83 | 1013.4 |
| 20260503211942 | 15 | 112 | 0.0 | 0.0 | 0.00 | 0.10 | 0.00 | 83 | 1013.4 |
| 20260503211442 | 15 | 112 | 0.0 | 0.0 | 0.00 | 0.10 | 0.00 | 83 | 1013.4 |
| 20260503210942 | 15 | 112 | 0.0 | 1.6 | 0.00 | 0.10 | 0.00 | 83 | 1013.3 |
| 20260503210442 | 15 | 22 | 1.6 | 1.6 | 0.00 | 0.10 | 0.00 | 82 | 1013.3 |
| 20260503205942 | 15 | 22 | 1.6 | 1.6 | 0.00 | 0.10 | 0.00 | 82 | 1013.4 |
| 20260503205442 | 15 | 45 | 1.6 | 1.6 | 0.00 | 0.10 | 0.00 | 81 | 1013.3 |
| 20260503204942 | 16 | 45 | 0.0 | 1.6 | 0.00 | 0.10 | 0.00 | 81 | 1013.4 |
| 20260503204442 | 16 | 45 | 0.0 | 0.0 | 0.00 | 0.10 | 0.00 | 81 | 1013.7 |
| 20260503203942 | 16 | 45 | 0.0 | 0.0 | 0.00 | 0.10 | 0.00 | 81 | 1013.4 |
| 20260503203442 | 16 | 45 | 0.0 | 0.0 | 0.00 | 0.10 | 0.00 | 80 | 1013.5 |
| 20260503202942 | 16 | 45 | 0.0 | 0.0 | 0.00 | 0.10 | 0.00 | 80 | 1013.5 |
| 20260503202442 | 16 | 22 | 0.0 | 1.6 | 0.00 | 0.10 | 0.00 | 79 | 1013.5 |
| 20260503201942 | 16 | 22 | 1.6 | 1.6 | 0.00 | 0.10 | 0.00 | 79 | 1013.8 |
| 20260503201442 | 16 | 22 | 1.6 | 1.6 | 0.00 | 0.10 | 0.00 | 79 | 1013.8 |
| 20260503200942 | 16 | 22 | 0.0 | 1.6 | 0.00 | 0.10 | 0.00 | 78 | 1013.8 |
| 20260503200442 | 16 | 22 | 1.6 | 1.6 | 0.00 | 0.10 | 0.00 | 78 | 1013.8 |
| 20260503195942 | 16 | 22 | 0.0 | 0.0 | 0.00 | 0.10 | 0.00 | 77 | 1013.7 |
| 20260503195442 | 16 | 22 | 0.0 | 0.0 | 0.00 | 0.10 | 0.00 | 77 | 1013.7 |
| 20260503194942 | 16 | 22 | 0.0 | 1.6 | 0.00 | 0.10 | 0.00 | 77 | 1013.8 |
| 20260503194442 | 16 | 22 | 1.6 | 1.6 | 0.00 | 0.10 | 0.00 | 76 | 1013.7 |
| 20260503193942 | 16 | 22 | 0.0 | 0.0 | 0.00 | 0.10 | 0.00 | 74 | 1013.6 |
| 20260503193442 | 16 | 67 | 0.0 | 0.0 | 0.00 | 0.10 | 0.00 | 74 | 1013.6 |
| 20260503192942 | 16 | 67 | 0.0 | 1.6 | 0.00 | 0.10 | 0.00 | 74 | 1013.4 |
| 20260503192442 | 16 | 45 | 1.6 | 1.6 | 0.00 | 0.10 | 0.00 | 74 | 1013.4 |
| 20260503191942 | 16 | 45 | 1.6 | 1.6 | 0.00 | 0.10 | 0.00 | 72 | 1013.4 |
| 20260503191442 | 16 | 45 | 1.6 | 1.6 | 0.00 | 0.10 | 0.00 | 72 | 1013.4 |
| 20260503190942 | 16 | 67 | 0.0 | 3.2 | 0.00 | 0.10 | 0.00 | 72 | 1013.4 |
| 20260503190442 | 16 | 45 | 0.0 | 0.0 | 0.00 | 0.10 | 0.00 | 72 | 1013.6 |
| 20260503185942 | 16 | 45 | 0.0 | 0.0 | 0.00 | 0.10 | 0.00 | 72 | 1013.4 |
| 20260503185442 | 16 | 67 | 0.0 | 0.0 | 0.00 | 0.10 | 0.00 | 72 | 1013.4 |
| 20260503184942 | 16 | 67 | 0.0 | 1.6 | 0.00 | 0.10 | 0.00 | 71 | 1013.4 |
| 20260503184442 | 16 | 67 | 1.6 | 6.4 | 0.00 | 0.10 | 0.00 | 72 | 1013.4 |
| 20260503183942 | 17 | 67 | 6.4 | 6.4 | 0.00 | 0.10 | 0.00 | 72 | 1013.5 |
| 20260503183442 | 17 | 67 | 1.6 | 1.6 | 0.00 | 0.10 | 0.00 | 72 | 1013.4 |
| 20260503182942 | 17 | 67 | 0.0 | 0.0 | 0.00 | 0.10 | 0.00 | 73 | 1013.5 |
| 20260503182442 | 17 | 112 | 0.0 | 0.0 | 0.00 | 0.10 | 0.00 | 73 | 1013.4 |
| 20260503181942 | 17 | 112 | 0.0 | 4.8 | 0.00 | 0.10 | 0.00 | 73 | 1013.4 |
| 20260503181442 | 17 | 112 | 4.8 | 6.4 | 0.00 | 0.10 | 0.00 | 74 | 1013.4 |
| 20260503180942 | 17 | 112 | 6.4 | 6.4 | 0.00 | 0.10 | 0.00 | 74 | 1013.4 |
| 20260503180442 | 17 | 112 | 6.4 | 6.4 | 0.00 | 0.10 | 0.00 | 75 | 1013.5 |
| 20260503175942 | 17 | 90 | 1.6 | 1.6 | 0.00 | 0.10 | 0.00 | 76 | 1013.5 |
| 20260503175442 | 17 | 135 | 0.0 | 6.4 | 0.00 | 0.10 | 0.00 | 76 | 1013.6 |
| 20260503174942 | 17 | 135 | 6.4 | 6.4 | 0.00 | 0.10 | 0.00 | 77 | 1013.5 |
| 20260503174442 | 17 | 90 | 1.6 | 3.2 | 0.00 | 0.10 | 0.00 | 78 | 1013.4 |
| 20260503173942 | 17 | 112 | 0.0 | 6.4 | 0.00 | 0.10 | 0.00 | 78 | 1013.4 |
| 20260503173442 | 17 | 112 | 6.4 | 8.0 | 0.00 | 0.10 | 0.00 | 78 | 1013.5 |
| 20260503172942 | 17 | 112 | 1.6 | 9.7 | 0.00 | 0.10 | 0.00 | 79 | 1013.4 |
| 20260503172442 | 17 | 112 | 6.4 | 11.3 | 0.00 | 0.10 | 0.00 | 79 | 1013.5 |
| 20260503171942 | 17 | 112 | 11.3 | 11.3 | 0.00 | 0.10 | 0.00 | 80 | 1013.4 |
| 20260503171442 | 17 | 112 | 11.3 | 11.3 | 0.00 | 0.10 | 0.00 | 80 | 1013.4 |
| 20260503170942 | 17 | 90 | 8.0 | 11.3 | 0.00 | 0.10 | 0.00 | 79 | 1013.4 |
| 20260503170442 | 17 | 112 | 11.3 | 11.3 | 0.00 | 0.10 | 0.00 | 79 | 1013.6 |
| 20260503150943 | 18 | 112 | 9.7 | 9.7 | 0.00 | 0.10 | 0.00 | 75 | 1013.1 |
| 20260503150443 | 18 | 112 | 9.7 | 9.7 | 0.00 | 0.10 | 0.00 | 75 | 1013.1 |
| 20260503130943 | 19 | 90 | 11.3 | 11.3 | 0.00 | 0.10 | 0.00 | 74 | 1014.4 |
| 20260503130443 | 19 | 90 | 11.3 | 16.1 | 0.00 | 0.10 | 0.00 | 74 | 1014.4 |
| 20260503110444 | 18 | 135 | 9.7 | 9.7 | 0.00 | 0.10 | 0.00 | 77 | 1015.9 |